Simultaneous Nadir Overpasses (SNOs) Predictions

Prediction of SNOs between GOES-15 and NPP Satellite Orbit:

Table of predicted SNOs for the next 14.0 days since TLE Epoch: 2/5/2022
Index Date Time (GOES-15) GOES-15 Lat,Lon NPP Lat,Lon Distance(km) Time Diff (sec)
1 02/05/2022 10:01:51 0.00,-128.19 0.15,-128.76 65.57 80
2 02/06/2022 09:40:27 0.00,-128.18 -0.90,-124.24 449.36 80
3 02/07/2022 22:02:23 -0.00,-128.17 -0.32,-129.54 156.10 80
4 02/08/2022 21:46:19 0.00,-128.16 0.68,-125.01 358.63 80
5 02/10/2022 10:08:07 -0.01,-128.12 0.49,-130.28 246.33 80
6 02/11/2022 09:46:43 -0.01,-128.11 -0.51,-125.75 267.82 80
7 02/12/2022 22:08:40 0.01,-128.09 -0.64,-131.07 339.11 80
8 02/13/2022 21:52:36 0.01,-128.07 0.36,-126.54 174.92 80
9 02/15/2022 10:14:24 -0.02,-128.03 0.81,-131.81 430.60 80
10 02/16/2022 09:52:59 -0.02,-128.00 -0.20,-127.28 83.12 80
11 02/18/2022 21:56:11 0.01,-127.95 0.01,-128.05 11.09 80
